sat.trackr.live / text

‹ back to catalog

STARLINK-11468 [DTC]

NORAD 62221 · 2024-231D

PAYLOAD ACTIVE UNKNOWN

§ Identity

Operator
Country
US
Launch date
2024-12-05
Launch site
AFWTR
Launch vehicle
Mass (kg)
RCS (m²)

Purposes: comms

External: N2YO · Heavens-Above · Gunter

§ Orbital elements

Epoch: 2026-05-25T04:41:50.012736Z

Period
91.73 min
Inclination
53.1567°
Eccentricity
0.0002855
Mean motion
15.69792103 rev/d
Perigee alt
357.6 km
Apogee alt
361.4 km
Semi-major
6,737.6 km
B*
1.6977e-3
RAAN
84.4124°
Arg perigee
153.4133°
Mean anomaly
206.7032°
Rev number
8,542

§ Raw data

STARLINK-11468 [DTC]1 62221U 24231D   26145.19571774  .00211135  00000+0  16977-2 0  99982 62221  53.1567  84.4124 0002855 153.4133 206.7032 15.69792103 85427

JSON: /api/v1/satellites/62221 · /tle

For live sub-satellite position, see the globe view (requires WebGL).

§ Visibility from observer

Set your observer location to see the next 7 days of passes ≥ 10°. The values pass through the URL so the page stays shareable.

No JS? Fill the form by hand. The geolocation button needs JavaScript.